Cortez, CO

7:20 PM MDT on September 25, 2017 (GMT -0600)
Cortez Municipal

Weather History for KCEZ - June, 2014

Change the Weather History Date:

Tuesday, June 3, 2014

  Actual Average Record
Temperature  
Mean Temperature 68 °F 61 °F  
Max Temperature 88 °F 81 °F 94 °F (2012)
Min Temperature 47 °F 41 °F 30 °F (2011)
Degree Days  
Heating Degree Days 0 5  
Month to date heating degree days 2 16  
Since 1 June heating degree days 2 16  
Since 1 July heating degree days 6185 6383  
Cooling Degree Days 3 1  
Month to date cooling degree days 4 3  
Year to date cooling degree days 20 8  
Since 1 June cooling degree days 4 3  
Growing Degree Days 20 (Base 50)    
Moisture  
Dew Point 25 °F    
Average Humidity 27    
Maximum Humidity 46    
Minimum Humidity 7    
Precipitation  
Precipitation 0.00 in 0.02 in 0.07 in (2005)
Month to date precipitation 0.00 0.09  
Year to date precipitation 2.99 5.23  
Sea Level Pressure  
Sea Level Pressure 29.82 in    
Wind  
Wind Speed 8 mph (South)    
Max Wind Speed 23 mph    
Max Gust Speed 32 mph    
Visibility 10 miles    
Events      
T = Trace of Precipitation, MM = Missing Value Source: NWS Daily Summary

Daily Weather History Graph

Daily Weather History Graph

Search for Another Location

Airport or City:

Trip Planner

Search our weather history database for the weather conditions in past years. The results will help you decide how hot, cold, wet, or windy it might be!

Date:

Astronomy

Jun. 03, 2014 Rise Set
Actual Time 5:54 AM MDT 8:30 PM MDT
Civil Twilight 5:24 AM MDT 9:01 PM MDT
Nautical Twilight 4:46 AM MDT 9:39 PM MDT
Astronomical Twilight 4:04 AM MDT 10:21 PM MDT
Moon 11:16 AM MDT (6/3) 12:04 AM MDT (6/3)
Length of Visible Light 15h 36m
Length of Day
14h 35m
Waxing Crescent, 30% of the Moon is Illuminated
Jun 3
Waxing Crescent
Jun 5
First Quarter
Jun 12
Full
Jun 19
Last Quarter
Jun 27
New

Hourly Weather History & Observations

Time (MDT) Temp. Dew Point Humidity Pressure Visibility Wind Dir Wind Speed Gust Speed Precip Events Conditions
12:53 AM 53.1 °F 33.1 °F 47% 29.80 in 10.0 mi ENE 5.8 mph - N/A   Clear
1:53 AM 54.0 °F 30.9 °F 41% 29.79 in 10.0 mi ENE 5.8 mph - N/A   Clear
2:53 AM 55.9 °F 30.0 °F 37% 29.79 in 10.0 mi ENE 9.2 mph - N/A   Clear
3:53 AM 53.1 °F 30.9 °F 43% 29.81 in 10.0 mi SE 3.5 mph - N/A   Clear
4:53 AM 52.0 °F 30.9 °F 45% 29.82 in 10.0 mi East 8.1 mph - N/A   Clear
5:53 AM 53.1 °F 30.9 °F 43% 29.82 in 10.0 mi East 4.6 mph - N/A   Clear
6:53 AM 55.9 °F 33.1 °F 42% 29.83 in 10.0 mi NE 5.8 mph - N/A   Clear
7:53 AM 61.0 °F 39.9 °F 46% 29.83 in 10.0 mi ENE 4.6 mph - N/A   Clear
8:53 AM 75.0 °F 28.0 °F 18% 29.85 in 10.0 mi SW 5.8 mph - N/A   Clear
9:53 AM 78.1 °F 30.0 °F 17% 29.85 in 10.0 mi WSW 8.1 mph - N/A   Clear
10:53 AM 81.0 °F 25.0 °F 13% 29.85 in 10.0 mi SSW 12.7 mph - N/A   Clear
11:53 AM 82.0 °F 27.0 °F 13% 29.85 in 10.0 mi SW 9.2 mph - N/A   Clear
12:53 PM 82.0 °F 24.1 °F 12% 29.84 in 10.0 mi SSW 11.5 mph - N/A   Clear
1:53 PM 84.0 °F 23.0 °F 11% 29.82 in 10.0 mi West 8.1 mph 17.3 mph N/A   Clear
2:53 PM 84.0 °F 21.9 °F 10% 29.80 in 10.0 mi SW 10.4 mph 18.4 mph N/A   Clear
3:53 PM 87.1 °F 19.0 °F 8% 29.79 in 10.0 mi SW 16.1 mph 28.8 mph N/A   Clear
4:53 PM 82.9 °F 16.0 °F 8% 29.80 in 10.0 mi WSW 11.5 mph 21.9 mph N/A   Clear
5:05 PM 84.0 °F 14.0 °F 7% 30.01 in 10.0 mi West 17.3 mph 25.3 mph N/A   Clear
5:53 PM 82.0 °F 12.9 °F 7% 29.79 in 10.0 mi SW 12.7 mph - N/A   Clear
6:53 PM 82.0 °F 15.1 °F 8% 29.77 in 10.0 mi SSW 6.9 mph - N/A   Clear
7:53 PM 79.0 °F 15.1 °F 9% 29.75 in 10.0 mi SSW 6.9 mph - N/A   Clear
8:53 PM 68.0 °F 23.0 °F 18% 29.75 in 10.0 mi South 3.5 mph - N/A   Clear
9:53 PM 57.9 °F 28.9 °F 33% 29.78 in 10.0 mi ENE 9.2 mph - N/A   Clear